Torna al catalogo

STARLINK-37792

AttivoComunicazioniSSO
NORAD 69437·PAYLOAD·🇺🇸 United States

Lanciato Jun 7, 2026 da Vandenberg Space Force Base

Loading…

Prossimi Passaggi (prossime 24 ore)

TLE

AggiornatoSource: CelesTrak SupGP

Epoca: Sep 15, 2026, 03:15 UTC

1 69437C 26126T   26258.13590278 -.00000370  00000+0 -11486-4 0  2587
2 69437  97.2851 119.3829 0002173  95.4962  65.5236 15.33449934    17

Traccia STARLINK-37792 in tempo reale con AllMySat

Download on the App Store